Regional Weather Roundup
Issued by NWS Memphis, TN

Home | Current Version | Previous Version | Text Only | Print | Product List | Glossary On
Versions: 1 2 3 4 5 6 7 8 9 10 11 12 13 14 15 16 17 18 19 20 21 22 23 24 25 26 27 28 29 30 31 32 33 34 35 36 37 38 39 40 41 42 43 44 45 46 47 48 49 50
000
ASUS44 KMEG 271910
RWRMEG
MEMPHIS CWA HOURLY WEATHER ROUNDUP
NATIONAL WEATHER SERVICE MEMPHIS TN
100 PM CST SAT DEC 27 2014

...WEST TENNESSEE...

CITY           SKY/WX    TMP DP  RH WIND       PRES   REMARKS
MEMPHIS INTL   RAIN      55  52  88 S3        30.09F FOG
NWS MEMPHIS      N/A     53 N/A N/A MISG        N/A
JACKSON        CLOUDY    52  49  89 S3        30.12R
LEXINGTON      CLOUDY    48  46  93 S3        30.12F
SAVANNAH       CLOUDY    48  48 100 SE3       30.12F
DYERSBURG      CLOUDY    50  39  66 CALM      30.12F
UNION CITY     CLOUDY    46  46 100 S3        30.10F
PARIS          CLOUDY    48  46  93 CALM      30.12F
HUNTINGDON     CLOUDY    49  48  96 S5        30.13F


...EASTERN ARKANSAS...

CITY           SKY/WX    TMP DP  RH WIND       PRES   REMARKS
JONESBORO      CLOUDY    52  52 100 CALM      30.09F FOG
WEST MEMPHIS   LGT RAIN  54  54 100 SE5       30.07F FOG
BATESVILLE     CLOUDY    48  45  87 NW7       30.12F
NEWPORT        CLOUDY    51  49  93 NW17      30.12F
WALNUT RIDGE   CLOUDY    52  46  82 NW16      30.10F
BLYTHEVILLE    LGT RAIN  51  51 100 E3        30.10F FOG
SEARCY         CLOUDY    51  48  89 N6        30.13S
STUTTGART      CLOUDY    54  52  94 NW10      30.09F
PINE BLUFF     LGT RAIN  54  53  97 N9        30.07F FOG
MONTICELLO     RAIN      59  57  93 E3        30.04F FOG


...NORTH MISSISSIPPI...

CITY           SKY/WX    TMP DP  RH WIND       PRES   REMARKS
TUPELO         CLOUDY    53  48  83 S9        30.11F
OXFORD         CLOUDY    50  50 100 SE6       30.10F FOG
OLIVE BRANCH   LGT RAIN  52  52 100 SE6       30.09F FOG
TUNICA         DRIZZLE   55  54  94 S3        30.09F
CLARKSDALE     CLOUDY    55  55 100 CALM      30.08F
CORINTH        HVY RAIN  52  48  87 SE7       30.12S VSB 3/4
GRENADA        CLOUDY    59  55  88 CALM      30.07F
GREENWOOD      LGT RAIN  64  58  80 S16       30.06F
COLUMBUS       LGT RAIN  55  50  82 SE9       30.12F
STARKVILLE     CLOUDY    55  52  88 S8        30.12F
GOLDEN TRIANGL CLOUDY    54  48  82 S12       30.13F


...SOUTHEAST MISSOURI...

CITY           SKY/WX    TMP DP  RH WIND       PRES   REMARKS
WEST PLAINS    CLOUDY    40  35  83 NW8       30.14F WCI  34
POPLAR BLUFF   CLOUDY    51  49  92 NW5       30.10F FOG
CAPE GIRARDEAU CLOUDY    50  49  96 W3        30.11F FOG


...NORTHWEST ALABAMA...

CITY           SKY/WX    TMP DP  RH WIND       PRES   REMARKS
MUSCLE SHOALS  CLOUDY    51  47  86 E9        30.14F


...MIDDLE TENNESSEE...

CITY           SKY/WX    TMP DP  RH WIND       PRES   REMARKS
NASHVILLE      RAIN      52  44  74 S17       30.16F
CLARKSVILLE    LGT RAIN  51  47  86 CALM      30.13F
COLUMBIA       CLOUDY   N/A N/A N/A S6        30.13F


...WESTERN KENTUCKY...

CITY           SKY/WX    TMP DP  RH WIND       PRES   REMARKS
PADUCAH        LGT RAIN  50  48  93 SW5       30.11S FOG
FORT CAMPBELL  LGT RAIN  50  47  88 SW2       30.13F FOG


...CENTRAL ARKANSAS...

CITY           SKY/WX    TMP DP  RH WIND       PRES   REMARKS
LITTLE ROCK    LGT RAIN  50  47  89 NW15      30.11F FOG


SKY/WX REPORTED AS FAIR MEANS FEW OR NO CLOUDS BELOW
12 THOUSAND FEET.



USA.gov is the U.S. government's official web portal to all federal, state and local government web resources and services.